DELTA 1 DEB, 7165

Orbit data source: Space-Track

DELTA 1 DEB, 7165 is space debris in SSO originally from a launch on Tue, 06 Nov 1973 UTC launched from the Air Force Western Test Range (AFWTR). Debris objects in space refer to the collection of defunct objects orbiting the Earth. Examples of debris include non-operational satellites, rocket bodies, and fragments generated from explosions, collisions, or faulty payload assembly.

Loading next visibility...
Identifier
7165, 1973-086ED
Orbit
SSO
Country
Flag of USUS
Related business
Manufacturer
Unknown
Mission
Spacecraft
Bus & Motor
Unknown
Mass
Unknown
Launch date (UTC)
1973-11-06 (53 years ago)
Launch vehicle
Unknown
Launch site
Air Force Western Test Range (AFWTR)
Object type
Payload
Rocket body
Debris
Shape & HBR
Unknown shape, 0.1 m
Radar Cross Section
Medium (>0.1 m² and <1 m²)

Expand to show TLE details & history
Last TLE update: 21 hours ago

TLE from 21 hours ago
0 DELTA 1 DEB
1 07165U 73086ED  26206.53495959  .00001483  00000-0  38208-2 0  9997
2 07165 101.6617 310.3884 0180537 164.1625 207.8888 13.14292224494311
Epoch: 2026-07-25T12:50Z
TLE epoch observation values (Epoch: 2026-07-25T12:50:20.508Z)
Latitude
10.82552°
Longitude
172.30647°
Altitude
1,330.094 km
Speed
7.135 km/s
True Right ascension
20h 32m 33s
True Declination
10° 46' 01"
Sunlit
Object was in full shadow at epoch
Visualization orbit readout
Latitude
Unknown
Longitude
Unknown
Altitude
Unknown
Speed
Unknown
Apparent Right ascension
Unknown
Apparent Declination
Unknown
Sunlit
N/A
Visualization observer readout
Local Sidereal Time
23:17:42
Azimuth
Unknown
Elevation
Unknown
Doppler factor
Unknown
Orbital elements
Apogee altitude
1,340.944 km
Perigee altitude
1,067.17 km
Semi-major axis
7,582.194 km
Eccentricity
0.01805
Inclination
101.6617°
RAAN
310.3884°
Arg. of periapsis
164.1625°
True anomaly
206.94009°
Mean anomaly
207.8888°
Eccentric anomaly
207.41257°
Mean motion
3.28739 °/min
Orbital period
109.51 mins
BSTAR
0.0038208
Loading maneuver chart data...
Computing Atmospheric mass density...
Loading historical data...
Loading historical data...
Loading historical data...
Loading historical data...
Loading historical data...
Loading historical data...
Loading historical data...

Documentation

Showing up to 5 results
|